SCP
0 0 0 0 0 0 0 0 0 0 0 0 0 0 0 0 0 0 0 0 0 0 0 0 0 0 0 0 0 0 0 0 0 0 0 0 0 0 0 0 0 0 0 0 0 0 0 0 0
0 0 0 0 0 0 0 0 0 0 0 0 0 0 0 0 0 0 0 0 0 0 0 0 0 0 0 0 0 0 0 0 0 0 0 0 0 0 0 0 0 0 0 0 0 0 0 0 0
0 0 0 0 0 0 0 0 0 0 0 0 0 0 0 0 0 0 0 0 0 0 0 0 0 0 0 0 0 0 0 0 0 0 0 0 0 0 0 0 0 0 0 0 0 0 0 0 0
0 0 0 0 0 0 0 0 0 0 0 0 0 0 0 0 0 0 0 0 0 0 0 0 0 0 0 0 0 0 0 0 0 0 0 0 0 0 0 0 0 0 0 0 0 0 0 0 0
0 0 0 0 0 0 0 0 0 0 0 0 0 0 0 0 0 0 0 0 0 0 0 0 0 0 0 0 0 0 0 0 0 0 0 0 0 0 0 0 0 0 0 0 0 0 0 0 0
-0 0 0 0 0 0 0 0 0 0 0 0 0 0 0 0 0 0 0 0 0 0 0 0 0 0 0 0 0 0 0 0 0 0 0 0 0 0 0 0 0 0 0 0 0 0 0 0 0
-0 0 0 0 0 0 0 0 0 0 0 0 0 0 0 0 0 0 0 0 0 0 0 0 0 0 0 0 0 0 0 0 0 0 0 0 0 0 0 0 0 0 0 0 0 0 0 0 0
0 0 0 0 0 0 0 0 0 0 0 0 0 0 0 0 0 0 0 0 0 0 0 0 0 0 0 0 0 0 0 0 0 0 0 0 0 0 0 0 0 0 0 0 0 0 0 0 0
0 0 0 0 0 0 0 0 0 0 0 0 0 0 0 0 0 0 0 0 0 0 0 0 0 0 0 0 0 0 0 0 0 0 0 0 0 0 0 0 0 0 0 0 0 0 0 0 0
0 0 0 0 0 0 0 0 0 0 0 0 0 0 0 0 0 0 0 0 0 0 0 0 0 0 0 0 0 0 0 0 0 0 0 0 0 0 0 0 0 0 0 0 0 0 0 0 0
0 0 0 0 0 0 0 0 0 0 0 0 0 0 0 0 0 0 0 0 0 0 0 0 0 0 0 0 0 0 0 0 0 0 0 0 0 0 0 0 0 0 0 0 0 0 0 0 0
0 0 0 0 0 0 0 0 0 0 0 0 0 0 0 0 0 0 0 0 0 0 0 0 0 0 0 0 0 0 0 0 0 0 0 0 0 0 0 0 0 0 0 0 0 0 0 0 0
0 0 0 0 0 0 0 0 0 0 0 0 0 0 0 0 0 0 0 0 0 0 0 0 0 0 0 0 0 0 0 0 0 0 0 0 0 0 0 0 0 0 0 0 0 0 0 0 0
0 0 0 0 0 0 0 0 0 0 0 0 0 0 0 0 0 0 0 0 0 0 0 0 0 0 0 0 0 0 0 0 0 0 0 0 0 0 0 0 0 0 0 0 0 0 0 0 0
0 0 0 0 0 0 0 0 0 0 0 0 0 0 0 0 0 0 0 0 0 0 0 0 0 0 0 0 0 0 0 0 0 0 0 0 0 0 0 0 0 0 0 0 0 0 0 0 0
0 0 0 0 0 0 0 0 0 0 0 0 0 0 0 0 0 0 0 0 0 0 0 0 0 0 0 0 0 0 0 0 0 0 0 0 0 0 0 0 0 0 0 0 0 0 0 0 0
0 0 0 0 0 0 0 0 0 0 0 0 0 0 0 0 0 0 0 0 0 0 0 0 0 0 0 0 0 0 0 0 0 0 0 0 0 0 0 0 0 0 0 0 0 0 0 0 0
0 0 0 0 0 0 0 0 0 0 0 0 0 0 0 0 0 0 0 0 0 0 0 0 0 0 0 0 0 0 0 0 0 0 0 0 0 0 0 0 0 0 0 0 0 0 0 0 0
0 0 0 0 0 0 0 0 0 0 0 0 0 0 0 0 0 0 0 0 0 0 0 0 0 0 0 0 0 0 0 0 0 0 0 0 0 0 0 0 0 0 0 0 0 0 0 0 0
0 0 0 0 0 0 0 0 0 0 0 0 0 0 0 0 0 0 0 0 0 0 0 0 0 0 0 0 0 0 0 0 0 0 0 0 0 0 0 0 0 0 0 0 0 0 0 0 0
0 0 0 0 0 0 0 0 0 0 0 0 0 0 0 0 0 0 0 0 0 0 0 0 0 0 0 0 0 0 0 0 0 0 0 0 0 0 0 0 0 0 0 0 0 0 0 0 0
0 0 0 0 0 0 0 0 0 0 0 0 0 0 0 0 0 0 0 0 0 0 0 0 0 0 0 0 0 0 0 0 0 0 0 0 0 0 0 0 0 0 0 0 0 0 0 0 0
0 0 0 0 0 0 0 0 0 0 0 0 0 0 0 0 0 0 0 0 0 0 0 0 0 0 0 0 0 0 0 0 0 0 0 0 0 0 0 0 0 0 0 0 0 0 0 0 0
0 0 0 0 0 0 0 0 0 0 0 0 0 0 0 0 0 0 0 0 0 0 0 0 0 0 0 0 0 0 0 0 0 0 0 0 0 0 0 0 0 0 0 0 0 0 0 0 0
0 0 0 0 0 0 0 0 0 0 0 0 0 0 0 0 0 0 0 0 0 0 0 0 0 0 0 0 0 0 0 0 0 0 0 0 0 0 0 0 0 0 0 0 0 0 0 0 0
0 0 0 0 0 0 0 0 0 0 0 0 0 0 0 0 0 0 0 0 0 0 0 0 0 0 0 0 0 0 0 0 0 0 0 0 0 0 0 0 0 0 0 0 0 0 0 0 0
0 0 0 0 0 0 0 0 0 0 0 0 0 0 0 0 0 0 0 0 0 0 0 0 0 0 0 0 0 0 0 0 0 0 0 0 0 0 0 0 0 0 0 0 0 0 0 0 0
0 0 0 0 0 0 0 0 0 0 0 0 0 0 0 0 0 0 0 0 0 0 0 0 0 0 0 0 0 0 0 0 0 0 0 0 0 0 0 0 0 0 0 0 0 0 0 0 0
0 0 0 0 0 0 0 0 0 0 0 0 0 0 0 0 0 0 0 0 0 0 0 0 0 0 0 0 0 0 0 0 0 0 0 0 0 0 0 0 0 0 0 0 0 0 0 0 0
0 0 0 0 0 0 0 0 0 0 0 0 0 0 0 0 0 0 0 0 0 0 0 0 0 0 0 0 0 0 0 0 0 0 0 0 0 0 0 0 0 0 0 0 0 0 0 0 0
Wind_Speed
2 2 3 3 5 5 4 1 1 4 5 4 4 4 4 4 3 3 6 10 13 16 14 16 15 13 12 10 10 9 9 9 9 10 11 11 12 12 13 14 15 15 16 17 17 18 18 18 19
1 2 4 4 6 6 2 1 4 4 3 5 5 5 5 5 1 4 9 12 14 15 13 14 16 14 12 11 10 9 9 9 9 9 10 10 11 11 12 13 14 14 15 16 16 16 17 17 18
1 3 3 4 7 7 4 1 2 5 5 6 7 5 5 2 5 6 10 16 15 14 13 14 16 15 13 12 10 10 9 9 9 9 9 10 10 10 11 12 12 13 13 14 14 15 16 16 17
3 3 4 7 8 4 4 1 4 7 7 6 6 6 5 1 3 6 14 17 16 15 14 14 16 15 14 12 11 10 9 9 9 8 8 9 9 9 10 11 11 11 12 13 13 14 14 15 16
3 3 7 9 9 3 2 1 6 9 8 9 8 6 5 6 5 10 16 18 16 15 14 14 17 16 14 13 12 11 10 9 9 9 8 8 8 9 9 9 9 10 10 11 12 13 13 14 15
2 4 8 10 11 4 3 5 6 9 8 7 8 7 3 8 10 12 16 16 15 14 13 12 17 16 15 14 13 12 11 10 9 9 8 8 8 7 7 8 8 8 9 10 11 11 12 13 14
3 5 10 12 12 11 4 7 7 8 10 10 7 7 5 9 11 13 16 15 14 14 13 12 14 15 15 14 14 13 12 11 10 9 8 8 7 7 7 6 7 7 7 8 9 10 11 12 13
2 6 12 12 13 14 3 8 5 8 7 4 7 9 3 9 14 14 15 14 14 14 14 14 13 13 13 13 14 14 12 12 11 10 9 8 7 6 6 5 6 6 6 7 8 9 9 10 11
3 8 13 13 13 11 5 8 5 4 6 6 8 5 5 11 16 15 14 15 15 15 15 14 14 13 12 12 13 14 13 12 12 11 10 8 5 5 4 5 4 5 5 6 7 7 7 6 7
4 9 13 8 8 7 5 8 6 7 10 10 10 10 7 13 17 19 20 21 21 21 19 16 15 14 13 10 10 9 9 10 10 8 9 6 5 4 4 6 4 4 4 3 5 5 3 3 4
5 8 6 4 4 4 5 6 6 9 13 14 13 15 16 16 19 20 21 22 22 20 19 17 16 15 14 10 9 7 6 7 9 10 10 7 6 5 5 4 5 4 4 2 1 1 2 3 4
5 5 5 4 2 4 6 5 8 14 15 5 9 9 17 20 22 23 23 22 20 20 21 19 18 16 15 12 10 9 8 7 7 9 11 8 5 6 5 4 4 4 3 3 2 1 1 2 4
6 4 4 5 6 7 8 11 10 17 17 11 6 10 18 20 22 22 20 19 19 20 20 20 20 18 16 13 10 10 10 9 10 9 10 10 7 7 7 5 5 5 4 4 3 2 2 3 3
2 5 6 6 7 5 9 12 10 18 13 14 16 17 18 20 22 20 20 21 21 22 21 20 21 20 18 14 12 11 10 10 10 10 12 13 9 8 8 7 6 6 5 4 4 3 3 3 3
2 6 8 7 6 4 6 13 14 16 8 14 17 19 20 21 21 23 23 23 23 22 21 22 21 21 20 18 16 12 10 11 10 10 13 14 12 11 9 8 7 7 6 6 5 5 4 4 5
4 6 6 3 5 4 6 16 12 8 11 16 17 18 19 20 22 22 22 21 21 20 21 21 18 20 21 18 16 12 11 12 11 11 11 15 15 13 10 9 8 8 7 6 6 5 5 5 5
5 6 9 6 5 4 8 19 20 9 12 18 19 18 18 19 21 22 22 22 21 21 21 21 21 22 21 19 15 14 12 13 12 11 11 14 16 15 12 10 9 9 8 7 6 6 6 6 6
7 11 12 12 3 7 12 22 27 20 17 21 21 20 19 20 21 20 21 21 20 19 20 20 21 21 20 16 14 13 14 13 12 12 13 16 15 16 14 10 11 11 9 8 8 8 7 6 6
9 12 16 16 5 7 16 24 28 24 18 20 20 19 19 20 18 15 17 18 19 19 20 21 21 21 18 15 15 15 15 14 13 13 16 17 17 17 16 11 12 12 11 11 11 9 9 8 6
8 12 15 12 1 7 15 24 26 20 15 14 16 16 16 16 14 14 14 16 19 21 21 22 22 22 22 17 15 13 13 12 14 13 16 18 19 18 15 16 13 13 11 13 12 11 8 7 7
9 10 11 11 9 7 10 15 11 9 6 8 9 10 11 12 12 11 13 16 17 20 22 19 22 22 22 20 13 11 11 10 12 16 15 18 20 20 18 19 16 14 14 12 14 13 13 9 8
9 4 7 8 9 7 5 11 13 9 10 8 11 10 10 8 7 8 10 13 17 18 17 19 20 21 20 20 18 20 17 17 17 14 14 17 20 21 20 19 19 16 14 14 14 14 12 12 9
5 2 4 5 6 8 4 7 11 7 9 15 15 15 13 11 9 7 8 11 13 14 15 16 18 19 20 21 21 21 20 18 13 14 17 18 18 21 21 20 19 18 15 16 15 14 14 12 11
2 4 3 3 4 6 2 5 9 5 7 12 14 15 15 14 12 10 7 7 9 11 13 15 17 19 19 21 22 24 24 21 18 18 16 15 14 15 22 21 20 19 16 17 16 15 16 13 13
4 6 5 4 4 3 2 6 12 10 7 8 11 13 14 14 14 14 12 8 7 10 13 15 17 19 20 21 23 24 24 23 23 20 18 16 14 15 20 20 20 18 18 17 16 16 16 16 16
1 5 5 6 7 6 3 9 10 11 9 8 7 9 12 16 16 16 14 11 9 8 10 14 17 18 19 20 21 21 22 17 16 20 17 17 15 15 17 20 20 20 19 18 17 14 15 14 15
3 3 3 6 7 8 7 7 13 11 5 4 10 14 17 18 18 17 15 13 11 9 8 11 14 15 16 18 19 19 20 20 19 18 18 16 16 14 18 19 20 20 20 19 18 14 16 14 15
3 1 4 5 7 8 8 8 8 8 12 14 15 17 20 19 17 17 14 13 12 10 8 8 10 13 13 15 16 14 17 19 18 17 19 18 17 17 17 19 20 20 20 19 18 15 15 15 15
5 5 6 6 6 8 10 8 6 11 13 12 14 17 18 17 15 14 13 13 12 10 8 7 7 9 10 12 14 15 16 16 17 17 19 18 17 18 18 18 19 20 20 20 18 18 17 17 16
5 6 7 7 8 8 12 13 7 9 8 10 15 16 14 13 13 13 13 13 13 12 11 8 7 7 8 10 12 14 15 15 16 18 18 17 18 17 18 18 19 19 20 20 20 20 18 18 18
Wind_Direction
177 220 236 230 229 240 277 19 191 162 173 146 154 196 222 232 270 19 110 155 149 153 158 158 156 151 145 137 127 117 106 96 88 82 77 73 68 63 61 58 55 54 52 50 48 46 44 44 44
208 233 224 230 247 253 265 162 204 185 125 141 176 209 225 229 60 111 151 162 159 157 161 158 155 155 151 145 137 127 115 105 96 88 82 77 72 65 62 59 56 54 52 51 48 45 43 42 42
211 259 232 225 244 268 299 137 187 126 146 179 187 220 251 223 162 167 160 162 164 162 163 156 159 159 156 151 144 135 125 115 105 95 88 83 77 69 66 61 58 55 52 50 48 45 41 39 39
240 213 223 241 246 269 308 52 158 161 175 208 211 209 214 201 156 154 153 163 168 166 165 161 165 164 161 157 151 144 136 126 115 105 96 89 83 75 69 65 59 56 52 49 47 44 40 37 37
243 240 230 240 253 257 240 196 185 197 190 195 210 233 205 152 142 151 161 168 172 169 169 167 169 169 167 164 159 153 147 137 126 116 106 97 91 81 74 71 63 57 53 49 47 44 39 35 34
223 244 247 253 260 257 217 191 191 220 211 187 210 237 200 138 162 162 166 173 175 171 172 173 175 175 174 171 168 163 157 148 137 127 117 107 99 91 81 76 70 61 55 50 47 44 39 32 31
261 257 261 269 275 272 235 173 210 223 216 202 205 227 167 168 168 165 170 176 180 179 180 181 181 179 180 179 176 172 166 158 148 138 128 118 109 100 87 81 77 67 57 53 49 45 40 31 29
292 265 263 265 272 279 202 178 228 231 227 185 204 232 197 157 159 165 172 179 185 188 190 188 188 184 183 182 182 179 174 168 159 148 138 129 120 113 102 100 86 75 60 54 50 45 42 32 27
247 255 263 267 271 281 180 198 204 225 224 202 220 248 65 133 153 164 174 186 192 197 197 196 193 188 187 185 181 183 181 177 169 160 152 152 155 147 145 105 95 84 65 55 51 45 37 29 29
228 257 267 282 276 284 208 223 205 205 222 221 219 207 152 158 169 178 186 191 196 198 198 197 198 193 190 187 186 188 184 179 183 174 168 173 170 166 157 128 116 100 83 70 52 44 27 5 10
232 259 280 260 265 272 240 229 219 226 236 230 226 205 179 179 187 194 199 200 200 198 197 199 199 197 195 191 190 187 185 182 187 187 182 181 177 174 184 176 165 164 173 170 138 230 15 8 8
247 253 266 270 246 245 244 239 229 231 248 262 241 206 178 189 196 202 204 205 202 201 200 199 199 199 200 198 195 195 191 190 190 192 191 187 186 192 191 197 191 193 194 197 216 278 345 338 340
241 265 252 253 248 249 255 246 256 251 250 242 224 193 195 200 205 209 211 208 205 204 203 202 200 201 200 203 203 202 201 198 196 193 195 195 193 196 195 198 197 202 201 205 213 232 272 296 312
278 265 261 256 245 243 256 261 251 261 249 233 225 217 212 211 210 209 210 210 208 207 205 202 202 202 201 203 205 205 204 201 202 197 198 199 201 199 199 200 202 204 205 209 218 233 260 278 288
254 275 263 229 230 246 269 263 236 253 234 233 229 228 224 221 216 214 211 210 209 207 205 203 202 203 204 206 208 208 205 202 203 201 200 200 203 203 202 204 204 205 203 206 216 221 243 260 270
238 255 270 186 205 213 254 274 274 257 233 244 242 235 228 225 221 220 216 213 212 208 206 204 200 204 206 207 208 209 208 206 207 204 202 202 204 205 205 207 208 203 201 208 215 223 236 244 258
229 279 297 298 200 219 243 277 285 271 245 254 254 246 236 232 225 222 218 214 211 208 204 203 202 204 205 207 208 211 210 210 210 206 204 203 204 205 207 211 208 202 205 209 213 220 230 243 251
300 300 295 296 265 236 259 274 284 281 256 260 263 258 247 240 233 223 216 214 211 208 205 204 203 205 204 204 209 212 215 215 214 211 209 205 204 204 208 210 210 204 207 209 211 218 220 236 250
288 282 287 294 303 259 272 281 287 291 283 267 265 263 258 252 248 233 217 210 208 207 206 204 203 204 201 200 204 207 212 213 214 215 213 209 207 204 206 209 209 207 211 212 213 216 223 226 228
256 275 287 298 254 260 290 288 287 291 288 285 283 281 276 270 258 237 221 210 208 207 206 206 206 203 203 204 204 209 213 217 217 215 217 214 210 207 206 209 208 207 211 214 213 213 220 223 214
259 264 289 302 312 251 298 292 290 310 317 307 300 295 293 284 274 253 226 218 213 212 209 208 207 206 205 204 203 205 213 221 217 216 216 215 213 210 208 210 210 208 209 212 211 209 215 221 212
279 286 273 285 300 306 337 303 303 328 336 16 18 13 360 340 303 275 246 228 221 220 216 214 212 210 207 203 206 204 207 213 216 214 215 214 213 213 211 210 211 210 209 213 211 209 213 218 224
282 354 269 277 281 285 254 264 289 315 353 10 12 15 15 8 350 318 275 246 234 224 218 217 216 214 210 207 210 212 219 224 224 218 218 216 212 213 212 211 210 210 210 212 210 207 210 213 221
258 249 214 212 239 254 218 262 288 320 349 346 354 7 12 7 1 349 323 273 245 225 217 215 216 217 212 211 213 216 222 224 224 221 218 216 213 211 213 211 211 210 209 209 209 208 210 212 218
236 282 282 260 243 257 127 255 261 283 315 315 322 340 355 360 358 351 341 316 269 233 220 215 216 219 214 214 216 219 224 226 227 226 221 217 215 213 212 208 210 209 208 207 206 207 211 213 216
246 276 301 304 298 302 227 248 265 290 305 297 303 331 350 354 349 342 337 325 302 263 233 221 220 222 216 216 220 223 225 227 231 229 225 221 220 218 213 210 211 210 206 204 204 207 210 213 216
230 225 323 286 280 274 257 261 284 279 277 331 351 356 354 347 342 339 336 332 324 303 266 237 230 229 223 221 222 223 224 226 230 231 230 229 226 220 215 211 212 211 207 204 201 207 208 210 215
296 236 204 248 279 279 267 258 258 288 314 335 347 349 345 343 342 341 340 338 334 326 307 272 246 239 234 228 226 227 227 228 230 231 231 229 228 223 219 214 211 210 207 204 203 206 209 209 214
181 196 225 249 263 279 287 270 249 278 312 334 339 340 342 345 345 344 344 344 343 342 334 313 280 260 247 238 234 233 234 233 232 233 234 232 230 225 223 218 214 212 208 204 203 205 205 210 215
244 242 221 251 261 249 278 281 270 280 314 328 332 340 346 349 349 350 350 351 353 351 346 335 310 281 263 251 243 240 238 235 234 235 236 234 232 227 223 220 216 214 211 206 204 205 206 209 215